« Back
NWS Peachtree City, Ga » Text Product » GA Regional Weather Roundup


Printer-friendly Version
Current Version              Previous Versions:   1  2  3  4  5  6  7  8  9  

Regional Weather Roundup

380
ASUS42 KFFC 270203
RWRGA
WEATHER ROUNDUP FOR GEORGIA
NATIONAL WEATHER SERVICE PEACHTREE CITY GA
1000 PM EDT THU MAR 26 2015

NOTE: "FAIR" INDICATES FEW OR NO CLOUDS BELOW 12,000 FEET WITH NO
SIGNIFICANT WEATHER AND/OR OBSTRUCTIONS TO VISIBILITY.

* = USE WITH CAUTION. THE STATIONS MARKED WITH AN ASTERISK MAY NOT
REPORT WEATHER SUCH AS PRECIPITATION, FOG, OR THUNDER AND ARE NOT
QUALITY CONTROLLED BY NWS.

THE REMARK "TC" DENOTES TEMPERATURE READING IN DEGREES CELSIUS.

GAZ001>058-270300-
NORTH GEORGIA

CITY           SKY/WX    TMP DP  RH WIND       PRES   REMARKS
ATLANTA        CLOUDY    67  52  58 SW6       29.78S
ATHENS         CLOUDY    66  57  72 S6        29.77F
CHAMBLEE       CLOUDY    66  52  60 S3        29.78R
PEACHTREE CITY CLOUDY    65  55  70 S3        29.80S
ROME           LGT RAIN  62  57  83 NW10G21   29.80R
WEST ATLANTA   CLOUDY    67  53  61 CALM      29.78R
GAINESVILLE    MOCLDY    64  51  62 SW6       29.80R
CARTERSVILLE   CLOUDY    65  53  65 S5        29.77F


CITY           SKY/WX    TMP DP  RH WIND       PRES   REMARKS
DALTON*        RAIN      54  52  94 N15G24    29.84R
MARIETTA       CLOUDY    66  54  63 SW2       29.78S
KENNESAW*      MOCLDY    66  52  59 SW6       29.79S
$$

GAZ059>098-102>109-270300-
CENTRAL GEORGIA

CITY           SKY/WX    TMP DP  RH WIND       PRES   REMARKS
AUGUSTA-BUSH   CLOUDY    69  56  62 S10       29.78S
AUGUSTA-DANIEL CLOUDY    70  56  61 SW6       29.80R
COLUMBUS       CLOUDY    66  61  84 SW9       29.84R
MACON          CLOUDY    65  60  84 SW6       29.81R
ROBINS AFB     CLOUDY    65  61  84 S7        29.81R


CITY           SKY/WX    TMP DP  RH WIND       PRES   REMARKS
LAGRANGE*      CLOUDY    71  63  76 SW5       29.82R
SYLVANIA*      CLOUDY    64  64  97 CALM      29.83R
MILLEDGEVILLE* CLOUDY    63  61  94 CALM      29.81R
$$

GAZ099>101-110>166-270300-
SOUTH GEORGIA

CITY           SKY/WX    TMP DP  RH WIND       PRES   REMARKS
SAVANNAH       LGT RAIN  66  62  87 S9        29.83S
VALDOSTA       CLOUDY    63  62  97 CALM      29.86R
ALMA           CLOUDY    65  64  97 CALM      29.84R
ST SIMONS      CLOUDY    65  63  93 S7        29.85S
FT STEWART     CLOUDY    66  64  92 S5        29.81R
ALBANY         CLOUDY    64  62  93 SW6       29.87R
HUNTER AFB     CLOUDY    66  64  92 S8        29.81F
MOODY AFB      CLOUDY    64  62  94 W5        29.85R
BRUNSWICK      CLOUDY    66  63  88 SE7       29.85S


CITY           SKY/WX    TMP DP  RH WIND       PRES   REMARKS
BAINBRIDGE*    CLOUDY    66  63  88 SW7       29.87R
MOULTRIE*      CLOUDY    63 N/A N/A CALM      29.86R HAZE
VIDALIA*       CLOUDY    63  63 100 S6        29.83R
WAYCROSS*      CLOUDY    69  69  99 CALM      29.84R
DOUGLAS*       CLOUDY    66  64  94 CALM      29.85S FOG
$$



USA.gov is the U.S. government's official web portal to all federal, state and local government web resources and services.